Location: Prague
(50.0830°N, 14.4670°E)
Time: 13:52:44
(UTC+01:00)

STRAND 1 - Visible Passes

Search period start: 06 December 2021 00:00
Search period end: 16 December 2021 00:00
Orbit: 767 x 781 km, 98.4° (Epoch: 05 December)

Date Brightness Start Highest point End Pass type
(mag) Time Alt. Az. Time Alt. Az. Time Alt. Az.
06 Dec ? 04:09:16 10° ENE 04:10:54 11° NE 04:12:31 10° NNE visible
06 Dec ? 05:44:03 10° SSE 05:49:04 58° ENE 05:54:05 10° N visible
07 Dec ? 05:10:39 10° SE 05:15:09 32° ENE 05:19:39 10° N visible
07 Dec ? 06:49:22 10° S 06:54:13 43° W 06:59:06 10° NNW visible
08 Dec ? 04:37:55 10° E 04:41:24 19° NE 04:44:53 10° NNE visible
08 Dec ? 06:14:52 10° SSE 06:20:00 81° WSW 06:25:09 10° NNW visible
09 Dec ? 04:06:33 10° ENE 04:07:49 11° NE 04:09:05 10° NE visible
09 Dec ? 05:40:58 10° SE 05:45:56 55° ENE 05:50:56 10° N visible
10 Dec ? 05:07:37 10° ESE 05:12:03 30° ENE 05:16:28 10° N visible
10 Dec ? 06:46:11 10° S 06:51:05 45° W 06:55:59 10° NNW visible
11 Dec ? 04:34:57 10° E 04:38:19 18° NE 04:41:40 10° NNE visible
11 Dec ? 06:11:44 10° SSE 06:16:52 85° WSW 06:22:01 10° NNW visible
12 Dec ? 04:03:59 10° ENE 04:04:44 10° NE 04:05:29 10° NE visible
12 Dec ? 05:37:53 10° SE 05:42:49 52° ENE 05:47:47 10° N visible
13 Dec ? 05:04:35 10° ESE 05:08:56 29° ENE 05:13:17 10° N visible
13 Dec ? 06:43:00 10° S 06:47:55 48° W 06:52:52 10° NNW visible
14 Dec ? 04:32:00 10° E 04:35:13 17° NE 04:38:26 10° NNE visible
14 Dec ? 06:08:37 10° SSE 06:13:44 90° WSW 06:18:52 10° NNW visible
15 Dec ? 05:34:48 10° SE 05:39:42 49° ENE 05:44:37 10° N visible
15 Dec ? 07:14:50 10° SSW 07:19:07 27° W 07:23:26 10° NW visible
